Regional Weather Roundup
Issued by NWS

Home | Current Version | Previous Version | Graphics & Text | Print | Product List | Glossary On
Versions: 1 2 3 4 5 6 7 8 9 10 11 12 13 14 15 16 17 18 19 20 21 22 23 24 25 26 27 28 29 30 31 32 33 34 35 36 37 38 39 40 41 42 43 44 45 46 47 48 49 50
000
ASUS43 KTOP 271659
RWRKS

WEATHER ROUNDUP FOR KANSAS
NATIONAL WEATHER SERVICE GOODLAND KS
1200 PM CDT THU APR 27 2017

NOTE:  "FAIR" INDICATES FEW OR NO CLOUDS BELOW 12,000 FEET WITH NO
SIGNIFICANT WEATHER AND/OR OBSTRUCTIONS TO VISIBILITY.

KSZ001>006-013>018-027>032-041>047-271800-
NORTHWEST KANSAS

CITY           SKY/WX    TMP DP  RH WIND       PRES   REMARKS
GOODLAND       MOSUNNY   57  36  45 SE16G22   29.55F
HAYS           CLOUDY    51  37  58 SE14      29.68F
HILL CITY      LGT RAIN  50  36  58 SE16      29.67F
RUSSELL        CLOUDY    53  37  54 SE13      29.69F
$$

KSZ061>065-074>080-084>089-271800-
SOUTHWEST KANSAS

CITY           SKY/WX    TMP DP  RH WIND       PRES   REMARKS
DODGE CITY     CLOUDY    59  39  47 S20       29.63F
ELKHART          N/A     56  39  53 S16         N/A
GARDEN CITY    CLOUDY    58  35  42 SE16G29   29.58F
GREAT BEND     LGT RAIN  52  37  56 SE15      29.69F
LIBERAL        CLOUDY    62  41  46 S23G30    29.56F
$$

KSZ066>073-081>083-090>101-271800-
SOUTHEAST KANSAS

CITY           SKY/WX    TMP DP  RH WIND       PRES   REMARKS
CHANUTE        SUNNY     56  39  53 VRB3      29.79F
COFFEYVILLE    SUNNY     58  44  60 NE8       29.77F
HUTCHINSON     MOSUNNY   57  39  51 SE14      29.73F
NEWTON         CLOUDY    54  39  57 SE8       29.74F
PARSONS        SUNNY     56  38  50 NE6       29.79F
WICHITA INTL   PTSUNNY   57  41  55 SE8G17    29.75R
WICHITA JABRA  MOSUNNY   57  40  52 MISG      29.74F
WINFIELD       SUNNY     61  44  53 S15       29.78R
$$

KSZ007>012-019>026-033>040-048>060-102>105-271800-
NORTHEAST KANSAS

CITY           SKY/WX    TMP DP  RH WIND       PRES   REMARKS
CONCORDIA      CLOUDY    53  35  50 CALM      29.73F
EMPORIA        SUNNY     55  37  50 S7        29.77F
LAWRENCE       SUNNY     55  37  50 W9        29.78F
MANHATTAN      SUNNY     56  35  45 VRB3      29.75F
OLATHE IND     SUNNY     53  37  54 W7        29.78F
OLATHE EXE     SUNNY     52  39  61 W8        29.78S
SALINA         CLOUDY    55  35  47 E7        29.74F
TOPEKA BILLARD SUNNY     55  36  48 SW8       29.77F
TOPEKA FORBES  SUNNY     56  35  45 W7        29.76F
$$



USA.gov is the U.S. government's official web portal to all federal, state and local government web resources and services.